Regional Weather Roundup
Issued by NWS Binghamton, NY

Home | Current Version | Previous Version | Text Only | Print | Product List | Glossary On
Versions: 1 2 3 4 5 6 7 8 9 10 11 12 13 14 15 16 17 18 19 20 21 22 23 24 25 26 27 28 29 30 31 32 33 34 35 36 37 38 39 40 41 42 43 44 45 46 47 48 49 50
000
ASUS41 KBGM 281410
RWRBGM

REGIONAL WEATHER ROUNDUP
NATIONAL WEATHER SERVICE BINGHAMTON NY
1000 AM EDT FRI APR 28 2017

Note: "fair" indicates few or no clouds below 12,000 feet with no
significant weather and/or obstructions to visibility.

* = Station(s) that does not report precipitation, such as rain,
snow, etc, also no thunder or fog.

NYZ009-015>018-022>025-036-037-044>046-055>057-062-281500
...Central New York...

CITY           SKY/WX    TMP DP  RH WIND       PRES   REMARKS
Binghamton     PTSUNNY   60  51  72 NW7       30.02S
Cortland       FAIR      59  50  72 W7        30.03S
Dansville      SUNNY     59  43  55 S8        30.04F
Elmira         MOSUNNY   63  45  51 SW13      30.01S
Seneca Falls   SUNNY     63  45  51 W10G17    30.04S
Ithaca         MOSUNNY   61  50  67 NW10      30.04R
Hamilton       MOSUNNY   61  48  63 W6        30.02S
Monticello     MOSUNNY   66  59  77 W7        30.01R
Norwich        SUNNY     63  48  59 W6        30.02S
Penn Yan       SUNNY     61  42  49 W12       30.02F
Rome           MOSUNNY   60  46  59 W9        30.03R
Sidney         SUNNY     63  54  72 W8        30.01S
Syracuse       PTSUNNY   60  46  59 W14       30.02R
$$

PAZ038>040-043-044-047-048-072-281500
...Northeast Pennsylvania...

CITY           SKY/WX    TMP DP  RH WIND       PRES   REMARKS
Hazleton       SUNNY     70  52  52 W8        30.05S
Scranton       PTSUNNY   69  59  70 CALM      29.99S
$$
&&
KEY
WCI = Wind Chill Index
VSB = Visibility
HX  = Heat Index
$$



USA.gov is the U.S. government's official web portal to all federal, state and local government web resources and services.